Gary, IN

2:32 PM CDT on September 20, 2017 (GMT -0500)
Gary / Chicago

Weather History for KGYY - August, 2014

Change the Weather History Date:

Friday, August 15, 2014

  Actual Average Record
Temperature  
Mean Temperature 62 °F -  
Max Temperature 77 °F 82 °F 94 °F (1978)
Min Temperature 46 °F 61 °F 33 °F (2007)
Degree Days  
Heating Degree Days 4    
Growing Degree Days 12 (Base 50)    
Moisture  
Dew Point 50 °F    
Average Humidity 76    
Maximum Humidity 95    
Minimum Humidity 34    
Precipitation  
Precipitation 0.00 in - - ()
Sea Level Pressure  
Sea Level Pressure 30.05 in    
Wind  
Wind Speed 1 mph (SSW)    
Max Wind Speed 7 mph    
Max Gust Speed -    
Visibility 12 miles    
Events      
Averages and records for this station are not official NWS values.
T = Trace of Precipitation, MM = Missing Value Source: NWS Daily Summary

Daily Weather History Graph

Daily Weather History Graph

Search for Another Location

Airport or City:

Trip Planner

Search our weather history database for the weather conditions in past years. The results will help you decide how hot, cold, wet, or windy it might be!

Date:

Astronomy

Aug. 15, 2014 Rise Set
Actual Time 5:58 AM CDT 7:49 PM CDT
Civil Twilight 5:28 AM CDT 8:18 PM CDT
Nautical Twilight 4:51 AM CDT 8:55 PM CDT
Astronomical Twilight 4:12 AM CDT 9:34 PM CDT
Moon 10:45 PM CDT (8/15) 11:45 AM CDT (8/15)
Length of Visible Light 14h 50m
Length of Day
13h 50m
Waning Gibbous, 69% of the Moon is Illuminated
Aug 15
Waning Gibbous
Aug 17
Last Quarter
Aug 25
New
Sep 2
First Quarter
Sep 8
Full

Hourly Weather History & Observations

Time (CDT) Temp. Windchill Dew Point Humidity Pressure Visibility Wind Dir Wind Speed Gust Speed Precip Events Conditions
12:15 AM 51.8 °F - 49.8 °F 93% 30.08 in 10.0 mi Calm Calm - N/A   Clear
12:35 AM 50.9 °F - 48.9 °F 93% 30.07 in 10.0 mi Calm Calm - N/A   Clear
12:55 AM 50.0 °F - 48.2 °F 94% 30.07 in 10.0 mi Calm Calm - N/A   Clear
1:15 AM 50.0 °F - 48.4 °F 94% 30.07 in 10.0 mi Calm Calm - N/A   Clear
1:35 AM 49.6 °F - 47.8 °F 94% 30.07 in 10.0 mi Calm Calm - N/A   Clear
1:55 AM 49.1 °F - 47.3 °F 93% 30.07 in 10.0 mi Calm Calm - N/A   Clear
2:15 AM 48.9 °F - 47.5 °F 95% 30.07 in 10.0 mi Calm Calm - N/A   Clear
2:35 AM 49.6 °F - 48.2 °F 95% 30.07 in 10.0 mi SSW 3.5 mph - N/A   Clear
2:55 AM 49.6 °F - 47.8 °F 94% 30.07 in 10.0 mi Calm Calm - N/A   Clear
3:15 AM 48.7 °F - 46.8 °F 93% 30.08 in 10.0 mi Calm Calm - N/A   Clear
3:35 AM 48.0 °F - 46.2 °F 93% 30.08 in 10.0 mi Calm Calm - N/A   Clear
3:55 AM 50.5 °F - 49.1 °F 95% 30.08 in 10.0 mi Calm Calm - N/A   Clear
4:15 AM 48.4 °F - 46.6 °F 93% 30.08 in 10.0 mi Calm Calm - N/A   Clear
5:45 AM 46.4 °F 44.3 °F 44.6 °F 93% 30.08 in 10.0 mi SSW 4.6 mph - N/A   Partly Cloudy
6:45 AM 51.8 °F - 50.0 °F 94% 30.10 in 20.0 mi SW 4.6 mph - N/A   Partly Cloudy
7:45 AM 59.0 °F - 50.0 °F 72% 30.11 in 20.0 mi Calm Calm - N/A   Partly Cloudy
8:45 AM 62.6 °F - 48.2 °F 59% 30.11 in 20.0 mi SSW 4.6 mph - N/A   Clear
10:45 AM 69.8 °F - 46.4 °F 43% 30.10 in 15.0 mi South 6.9 mph - N/A   Partly Cloudy
11:45 AM 71.6 °F - 44.6 °F 38% 30.10 in 15.0 mi South 5.8 mph - N/A   Partly Cloudy
12:45 PM 73.4 °F - 46.4 °F 38% 30.07 in 15.0 mi SSW 6.9 mph - N/A   Partly Cloudy
1:45 PM 75.2 °F - 46.4 °F 36% 30.07 in 15.0 mi South 5.8 mph - N/A   Partly Cloudy
2:45 PM 77.0 °F - 46.4 °F 34% 30.04 in 15.0 mi North - - N/A   Scattered Clouds
4:45 PM 77.0 °F - 46.4 °F 34% 30.02 in 15.0 mi South 6.9 mph - N/A   Scattered Clouds
5:45 PM 77.0 °F - 46.4 °F 34% 29.99 in 15.0 mi Variable 4.6 mph - N/A   Scattered Clouds
8:45 PM 68.0 °F - 55.4 °F 64% 29.99 in 15.0 mi Variable 4.6 mph - N/A   Scattered Clouds
9:15 PM 64.9 °F - 56.1 °F 73% 29.99 in 10.0 mi Calm Calm - N/A   Clear
9:35 PM 62.2 °F - 56.5 °F 81% 29.99 in 10.0 mi Calm Calm - N/A   Clear
9:55 PM 62.1 °F - 56.8 °F 83% 29.99 in 10.0 mi Calm Calm - N/A   Clear
10:15 PM 60.6 °F - 56.5 °F 86% 29.99 in 10.0 mi Calm Calm - N/A   Clear
10:35 PM 60.3 °F - 56.7 °F 88% 29.99 in 10.0 mi Calm Calm - N/A   Clear
11:15 PM 61.9 °F - 56.5 °F 82% 29.99 in 10.0 mi Calm Calm - N/A   Clear
11:35 PM 61.9 °F - 56.3 °F 82% 29.99 in 10.0 mi Calm Calm - N/A   Clear
11:55 PM 63.3 °F - 56.1 °F 77% 29.98 in 10.0 mi Calm Calm - N/A   Clear